Location: College Park
(38.9810°N, 76.9370°W)
Time: 15:20:47
(UTC-04:00)

Vanguard 3 - Visible Passes

Search period start: 23 April 2018 00:00
Search period end: 03 May 2018 00:00
Orbit: 508 x 3264 km, 33.3° (Epoch: 22 April)

Date Brightness Start Highest point End Pass type
(mag) Time Alt. Az. Time Alt. Az. Time Alt. Az.
23 Apr 10.0 03:24:16 18° SSE 03:24:16 18° SSE 03:27:34 10° SE visible
23 Apr 10.1 05:29:25 10° SW 05:32:16 11° SSW 05:35:27 10° SSW visible
23 Apr 8.1 21:39:40 10° SW 21:40:53 17° SSW 21:40:53 17° SSW visible
24 Apr 10.0 04:20:05 15° S 04:20:05 15° S 04:23:43 10° S visible
24 Apr 8.1 20:27:18 10° SSW 20:29:27 14° SSE 20:31:29 10° SE visible
25 Apr 7.3 21:23:52 10° SW 21:26:54 26° S 21:26:54 26° S visible
26 Apr 8.5 22:21:20 10° WSW 22:22:07 15° WSW 22:22:07 15° WSW visible
27 Apr 7.1 21:08:01 10° SW 21:11:33 30° S 21:12:42 25° SE visible
28 Apr 7.7 22:05:46 10° WSW 22:07:49 26° SW 22:07:49 26° SW visible
29 Apr 7.1 20:52:07 10° WSW 20:56:01 34° S 20:58:18 17° ESE visible
30 Apr 7.0 21:50:07 10° WSW 21:53:21 34° SSW 21:53:21 34° SSW visible
01 May 7.1 20:36:08 10° WSW 20:40:29 37° S 20:43:47 11° ESE visible
01 May 9.0 22:48:15 10° WSW 22:48:22 11° WSW 22:48:22 11° WSW visible
02 May 7.0 21:34:24 10° WSW 21:38:11 34° S 21:38:47 32° SSE visible
